Regional Weather Roundup
Issued by NWS

Home | Current Version | Previous Version | Text Only | Print | Product List | Glossary On
Versions: 1 2 3 4 5 6 7 8 9 10 11 12 13 14 15 16 17 18 19 20 21 22 23 24 25 26 27 28 29 30 31 32 33 34 35 36 37 38 39 40 41 42 43 44 45 46 47 48 49 50
000
ASUS44 KFWD 240303
RWRTX
NORTH TEXAS HOURLY WEATHER ROUNDUP
NATIONAL WEATHER SERVICE FORT WORTH TX
1000 PM CDT TUE AUG 23 2016

NOTE: "FAIR" INDICATES FEW OR NO CLOUDS BELOW 12,000 FEET WITH NO
SIGNIFICANT WEATHER AND/OR OBSTRUCTIONS TO VISIBILITY.

TXZ118-119-240400-
DALLAS/FORT WORTH METROPLEX

CITY           SKY/WX    TMP DP  RH WIND       PRES   REMARKS
DFW AIRPORT    CLEAR     85  69  58 S12       30.06R
DALLAS LOVE    PTCLDY    86  72  62 S15       30.07R HX  92
FTW MEACHAM    CLEAR     86  68  54 SE12      30.06R
DAL-EXECUTIVE  CLEAR     83  74  74 S8        30.07R
FTW-ALLIANCE   PTCLDY    83  68  60 S8        30.06R
FTW-NAS-JRB    CLEAR     87  67  51 S14       30.06R HX  90
FTW-SPINKS     CLEAR     79  69  71 SE7       30.09R
ARLINGTON      CLEAR     83  69  62 SE8       30.07R
GRAND PRAIRIE  CLEAR     84  68  58 SE8       30.08R
ADDISON        CLEAR     86  72  62 SE13      30.07R HX  92
MESQUITE       CLEAR     80  73  81 SE6       30.07R
LANCASTER      CLEAR     82  73  74 SE3       30.08R
$$

TXZ091>094-102>105-117-120-121-131>134-240400-
NORTH CENTRAL TEXAS

CITY           SKY/WX    TMP DP  RH WIND       PRES   REMARKS
SHRMAN/DENISON NOT AVBL
GAINESVILLE      N/A     78  70  77 SE6       30.08R
BOWIE          CLEAR     83  69  62 S12       30.05R
BRIDGEPORT     CLEAR     81  71  71 SE6       30.07R
DECATUR        CLEAR     82  66  57 SE8       30.07R
DENTON         CLEAR     83  70  64 S12       30.05R
MCKINNEY       CLEAR     81  72  74 S9        30.07R
GREENVILLE     CLEAR     77  70  78 CALM      30.09R
ROCKWALL       CLEAR     82  73  74 SE5       30.07R
TERRELL        CLEAR     80  72  76 S6        30.09R
WAXAHACHIE     CLEAR     79  73  82 SE3       30.10R
CLEBURNE       CLEAR     81  72  74 SE9       30.09R
GRANBURY       CLEAR     86  69  56 SE9       30.07R HX  90
$$

TXZ083>090-098>101-113>116-127>130-139>142-154-155-240400-
WESTERN NORTH TEXAS

CITY           SKY/WX    TMP DP  RH WIND       PRES   REMARKS
WICHITA FALLS  PTCLDY    84  66  54 S14       30.01R
WF-KICKAPOO    PTCLDY    85  65  51 S12       30.02S
VERNON         CLOUDY    84  62  46 W9        30.03R
ABILENE        CLOUDY    82  63  52 S12       30.06R
ABILENE-DYESS  CLOUDY    81  63  54 SE12      30.05R
CISCO          CLEAR     82  64  54 S13       30.08R
GRAHAM         CLEAR     83  67  59 SE8       30.03R
MINERAL WELLS  CLEAR     83  69  62 S10       30.04R
STEPHENVILLE   CLEAR     80  67  65 S6        30.11R
COMANCHE       CLEAR     81  68  65 S8        30.09R
BROWNWOOD      PTCLDY    82  66  57 S9        30.09R
COLEMAN        CLEAR     82  65  57 S9        30.09R
$$

TXZ143>147-156>162-174-175-240400-
CENTRAL TEXAS

CITY           SKY/WX    TMP DP  RH WIND       PRES   REMARKS
WACO           CLEAR     85  71  63 S13       30.07R HX  90
WACO-MCGREGOR  CLEAR     82  71  69 S12       30.08R
HILLSBORO      CLEAR     79  70  74 SE7       30.09R
CORSICANA      CLEAR     82  73  74 SE8       30.10R
MEXIA          CLEAR     81  73  78 S14       30.09R
HEARNE         CLEAR     80  73  79 CALM      30.10R
CAMERON        CLEAR     82  71  69 S6        30.09R
TEMPLE         CLEAR     81  72  74 SE9       30.10R
KILLEEN        CLEAR     78  71  79 SE12      30.09R
KILLEEN-SKYLRK CLEAR     82  72  71 S8        30.10R
FORT HOOD      CLEAR     81  70  70 S10       30.07R
HAMILTON       CLEAR     79  69  72 S9        30.11R
LAMPASAS       CLEAR     80  72  75 S6        30.10R
$$

TXZ095>097-106>112-122>126-135>138-148>153-164>167-240400-
EAST TEXAS

CITY           SKY/WX    TMP DP  RH WIND       PRES   REMARKS
PARIS          CLEAR     79  72  78 SE10      30.09R
SULPHUR SPRNGS CLEAR     81  71  71 SE5       30.12R
MOUNT PLEASANT CLEAR     80  74  82 SE6       30.11R
GILMER         CLOUDY    80  74  82 SE6       30.11R
TYLER          CLEAR     82  76  81 SE10      30.10R
LONGVIEW       CLOUDY    77  75  93 S6        30.10R
MARSHALL       CLOUDY    76  73  90 CALM      30.13S
ATHENS         CLEAR     79  72  78 S3        30.09R
PALESTINE      CLEAR     81  77  87 SE5       30.11R
JACKSONVILLE   CLEAR     81  77  89 S7        30.14R
HENDERSON      CLEAR     79  75  89 S5        30.13R
CENTER         PTCLDY    81  79  92 CALM      30.14R HX  91
NACOGDOCHES    PTCLDY   N/A N/A N/A CALM      30.11R
LUFKIN         PTCLDY    79  77  94 SE3       30.12R
$$

SUPPLEMENTAL OBSERVATIONS (CENTRAL)

CITY           SKY/WX    TMP DP  RH WIND       PRES   REMARKS
$$

SUPPLEMENTAL OBSERVATIONS (WEST)

CITY           SKY/WX    TMP DP  RH WIND       PRES   REMARKS
$$

SUPPLEMENTAL OBSERVATIONS (EAST)

CITY           SKY/WX    TMP DP  RH WIND       PRES   REMARKS
$$

SUPPLEMENTAL OBSERVATIONS ARE A COLLECTION OF AUTOMATED INSTRUMENTS
THAT ARE MAINTAINED BY A VARIETY OF FEDERAL AND STATE AGENCIES.
CERTAIN ELEMENTS...SUCH AS HUMIDITY VALUES AND SUSTAINED WIND
SPEEDS...MAY BE APPROXIMATED.




USA.gov is the U.S. government's official web portal to all federal, state and local government web resources and services.